"Pseudo-MPEC" for C5ZAU62

Created 2021 Sep 17 3:07:06 UT using Find_Orb

Click here for an explanation of pseudo-MPECs

 
 Astrometry: 
     C5ZAU62  C2021 09 15.14662018 31 01.19 +34 02 48.3    ~9F4M       VNEOCPG96
     C5ZAU62  C2021 09 15.15293618 31 10.50 +34 01 33.4    ~9F4M 19.12GVNEOCPG96
     C5ZAU62  C2021 09 15.15923818 31 19.77 +34 00 19.2    ~9F4M 19.07GVNEOCPG96
     C5ZAU62  C2021 09 15.16554218 31 29.05 +33 59 04.5    ~9F4M 19.15GVNEOCPG96
     C5ZAU62  C2021 09 15.30245018 34 52.83 +33 31 25.8    ~9F7b 19.18GVNEOCPG96
     C5ZAU62  C2021 09 15.30263018 34 53.01 +33 31 24.3    ~9F7b 18.96GVNEOCPG96
     C5ZAU62  C2021 09 15.30281018 34 53.28 +33 31 22.9    ~9F7b       VNEOCPG96
     C5ZAU62  C2021 09 15.30299018 34 53.59 +33 31 20.1    ~9F7b 19.04GVNEOCPG96
     C5ZAU62  C2021 09 15.30326618 34 53.88 +33 31 17.1    ~9F7b 19.48GVNEOCPG96
     C5ZAU62  C2021 09 15.30362018 34 54.57 +33 31 12.0    ~9F7b 19.25GVNEOCPG96
     C5ZAU62  C2021 09 15.30397418 34 55.06 +33 31 08.0    ~9F7b 19.47GVNEOCPG96
     C5ZAU62  C2021 09 15.30432818 34 55.57 +33 31 03.2    ~9F7b 19.10GVNEOCPG96
     C5ZAU62 KC2021 09 15v2Wx;'Xr^s%o,\:SXAc4rx7\t!I!(E39xNtal94K.@bt@C]!X/SI595
     C5ZAU62 KC2021 09 15kN%nOa:!lEOF,B9@m!:/$hP!+Y5^][fbOoIC2$5WT\=PO7wQQ-Ut595
     C5ZAU62 KC2021 09 157Vvj5ZMp!5Fp8i\=Y9KoVUDGRuS9*M*aMQ;Xgmg2_0oVib[^s6]@595
     C5ZAU62 KC2021 09 15CXM\cg$'m/Dbge$4RAstrometryksb:P,1jO'JE:w[Wx[YJDW21BZ41
     C5ZAU62 KC2021 09 157Et(r]viRh3(joRi/OJf'MGawk/V;U5\MLXPo1r)mbRE+aNUM0\NZ41
     C5ZAU62 KC2021 09 15K3sCCO^w*tZ1l;pW3SJO+IZlredacted;x6?bLG3`@V]I;ZSi:diZ41
     C5ZAU62 KC2021 09 15aZ9mliCw8#Cjm,@c?Z]P=,Ew94lXWS8qq+=:No-,8QSU^sr#SVSJZ41
     C5ZAU62 KC2021 09 15RHVf:4xGLorW23`[@ltqE)/s!31@+NsS*9Gr7HD`@!M-;.'a\S-eZ41
     C5ZAU62 KC2021 09 15bZAO:,JclickEZCR6S6(!4BB6o)+X1m:dTZ4!V(-(B#4`mhQuieeZ41
     C5ZAU62 KC2021 09 15UgIaEZT:xbt$Pu4X\::$q)?eqJ`:iXZy)`y=n9;Vgs,b.y3#tv_gZ41
     C5ZAU62 KC2021 09 16Fy'62;52DO1;wKV-8*mU81T:x14:.M'TMcD_$YK#b\r_aOl3_/KKH21
     C5ZAU62 KC2021 09 16=?I(.65yECUuWR?cJ%JSK$fegk6*e9gs1#be%'FZ#aTv$%U(X'-yH21
     C5ZAU62 KC2021 09 16FNj63UO(;WkZpaZ*7Er3IQiRdJ9=pA-,T=5TE*2j0F`LZkjKj8:HH21
     C5ZAU62 KC2021 09 16'F2+9OUZ6a5SQCy[/CF/*LiOn?X-34YltruOS2kB?BerWOW^F)NOH21
     C5ZAU62 KC2021 09 16EBHXO\^o+lhAul2q2.6*@eFwJF[RuND8XZQPO\Bqb=F/*hereqA8858
     C5ZAU62 KC2021 09 16.K2sr0CrEOnK$ld6;fUQ.'mK'UyCH-I4ux$mC-ao1-3G3(gC3u$!858
     C5ZAU62 KC2021 09 16+)0*2kOGr$EPrfori]38Iu%J.a8+tg/h;]Sydekmf=LfGDU*WG-R858
     C5ZAU62 KC2021 09 16LX;3JF-70aZ%E3$cRI0sf\_3:r8a%Dg79a:aSJH3)GF-0RWAKw#0958
     C5ZAU62 KC2021 09 161^$)P?bt,h,;(Gn,p[5='vN4SI9QJd(ynHaCT;1a1m.%yXahvBd$958
     C5ZAU62 KC2021 09 160r'J#-N?LV@$Y=YuNt,A\et;bk#MI3E*]7eA=B98explanationF958
     C5ZAU62 KC2021 09 16.85698319 15 47.25 +27 20 48.0    ~9GL7 18.6 GVNEOCPJ95
     C5ZAU62 KC2021 09 16.85926819 15 50.88 +27 20 10.8    ~9GL7 18.6 GVNEOCPJ95
     C5ZAU62 KC2021 09 16.86159519 15 54.56 +27 19 31.7    ~9GL7 18.6 GVNEOCPJ95
     C5ZAU62 KC2021 09 16.86390119 15 58.24 +27 18 53.6    ~9GL7 18.6 GVNEOCPJ95
     C5ZAU62 KC2021 09 16.90805719 17 08.25 +27 06 35.1    ~9GN7 17.4 GVNEOCPZ80
     C5ZAU62 KC2021 09 16.91436319 17 18.26 +27 04 49.4    ~9GN7 19.1 GVNEOCPZ80
     C5ZAU62 KC2021 09 16.92061319 17 28.17 +27 03 04.9    ~9GN7 19.0 GVNEOCPZ80

Station data:
(595) Farra d'Isonzo  (N45.915734 E13.525780)  Italy.  Observers L.
   Bittesini, F. Fabris, E. Pettarin, F. Piani. Measurer E. Pettarin. 0.30-m
   f/4.5 reflector + CCD.
(858) Tebbutt Observatory, Edgewood  (N35.093872 W106.220000)  US/New Mexico.
(958) Observatoire de Dax  (N43.693327 W1.030390)  France.
(G96) Mt. Lemmon Survey  (N32.442754 W110.788720)  US/Arizona.  Observers T.
   A. Pruyne, B. M. Africano, E. J. Christensen, G. A. Farneth, D. C. Fuls,
   A. R. Gibbs, A. D. Grauer, H. Gröller, J. A. Johnson, R. A. Kowalski, S.
   M. Larson, G. J. Leonard, D. Rankin, R. L. Seaman, F. C. Shelly. 1.5-m
   reflector + 10K CCD.
(H21) Astronomical Research Observatory, Westfield  (N39.483057 W87.968270)
   US/Illinois. 0.76-m f/3.0 astrograph + CCD.
(J95) Great Shefford  (N51.474969 W1.447003)  UK.  Observer P. Birtwhistle.
   0.40-m f/6.0 Schmidt-Cassegrain + CCD.
(Z41) Irydeo Observatory, Camarma de Esteruelas  (N40.561118 W3.373600)
   Spain.
(Z80) Northolt Branch Observatory  (N51.554661 W0.371920)  UK.  Observer G.
   Wells. Measurer D. Bamberger. 0.25-m f/8 Ritchey-Chrétien + CCD.

Orbital elements:  C5ZAU62
   Perihelion 2021 Aug 12.354535 +/- 0.077558 TT =  8:30:31 (JD 2459438.854535)
Epoch 2021 Sep 16.0 TT = JDT 2459473.5   Earth MOID: 0.0597   AutoNEOCP
M  10.28152142 +/- 0.1413778        (J2000 ecliptic)
n   0.29676384 +/- 0.00344557       Peri.  126.01458 +/- 0.0525350
a   2.22601826 +/- 0.0172298        Node   178.56062 +/- 0.0083354
e   0.5878156 +/- 0.00319992        Incl.   25.05898 +/- 0.0762100
P   3.32                   H 22.0   G  0.15   U  8.9  
q 0.91752993 +/- 3.76583e-5    Q 3.53450659 +/- 0.0350167
From 39 observations 2021 Sept. 15-16 (42.6 hr); mean residual 0".36
Residuals in arcseconds: 
210915 G96  .37-  .45+    210915 595  .18+  .16-    210916 858  .50+  .05+    
210915 G96  .13+  .16-    210915 595  .40-  .27+    210916 858  .50+  .23-    
210915 G96  .31+  .06-    210915 Z41  .21-  .17+    210916 858  .17-  .01-    
210915 G96  .48+  .26-    210915 Z41  .30-  .15+    210916 958  .14-  .13+    
210915 G96  .96+  .81-    210915 Z41  .02-  .40-    210916 958  .02-  .10-    
210915 G96  .19-  .09-    210915 Z41  .21+  .10+    210916 958  .13+  .15+    
210915 G96  .21-  .74+    210915 Z41  .62-  .09-    210916 J95  .22-  .30-    
210915 G96  .27+  .17+    210915 Z41  .12-  .02-    210916 J95  .07-  .40+    
210915 G96  1.3-  .58+    210915 Z41  .50-  .01-    210916 J95  .14-  .08-    
210915 G96  .63+  .14-    210916 H21  .04-  .08-    210916 J95  .22+  .12+    
210915 G96  .08+  .24+    210916 H21  .23+  .28-    210916 Z80  .73+  .65-    
210915 G96  .23-  .18-    210916 H21  .27+  .23-    210916 Z80  .52+  .43-    
210915 595  .08-  .23+    210916 H21  .03-  .08-    210916 Z80  .09+  .20+    

Ephemerides (geocentric):
Date (UTC) HH   RA              Dec         delta   r     elong  mag " sig PA
---- -- -- --  -------------   -----------  ------ ------ -----  --- ---- ---
2021 09 17 03  19 23 02.310   +26 06 05.25  .07789 1.0370 112.2 18.8 .175  21
2021 09 17 04  19 24 09.887   +25 54 03.48  .07774 1.0373 112.4 18.8 .176  21
2021 09 17 05  19 25 17.493   +25 41 57.03  .07760 1.0375 112.7 18.8 .177  22
2021 09 17 06  19 26 25.124   +25 29 45.95  .07746 1.0378 113.0 18.8 .177  22
2021 09 17 07  19 27 32.778   +25 17 30.25  .07732 1.0380 113.2 18.8 .178  23
2021 09 17 08  19 28 40.450   +25 05 09.99  .07718 1.0383 113.5 18.8 .178  23
2021 09 17 09  19 29 48.139   +24 52 45.20  .07705 1.0385 113.8 18.8 .179  24
2021 09 17 10  19 30 55.841   +24 40 15.91  .07692 1.0388 114.1 18.8 .179  25
2021 09 17 11  19 32 03.552   +24 27 42.17  .07679 1.0391 114.3 18.7 .180  25
2021 09 17 12  19 33 11.270   +24 15 04.02  .07667 1.0393 114.6 18.7 .180  26
2021 09 17 13  19 34 18.990   +24 02 21.50  .07654 1.0396 114.9 18.7 .180  27
2021 09 17 14  19 35 26.711   +23 49 34.66  .07642 1.0398 115.2 18.7 .180  28
2021 09 17 15  19 36 34.428   +23 36 43.55  .07630 1.0401 115.5 18.7 .181  30
2021 09 17 16  19 37 42.139   +23 23 48.21  .07619 1.0403 115.7 18.7 .181  31
2021 09 17 17  19 38 49.839   +23 10 48.70  .07608 1.0406 116.0 18.7 .181  32
2021 09 17 18  19 39 57.527   +22 57 45.06  .07597 1.0408 116.3 18.7 .182  34
2021 09 17 19  19 41 05.199   +22 44 37.35  .07586 1.0411 116.6 18.7 .182  35
2021 09 17 20  19 42 12.851   +22 31 25.62  .07575 1.0414 116.9 18.6 .183  37
2021 09 17 21  19 43 20.481   +22 18 09.94  .07565 1.0416 117.1 18.6 .184  39
2021 09 17 22  19 44 28.085   +22 04 50.35  .07555 1.0419 117.4 18.6 .184  41
2021 09 17 23  19 45 35.659   +21 51 26.91  .07545 1.0421 117.7 18.6 .185  43
2021 09 18 00  19 46 43.202   +21 37 59.69  .07536 1.0424 118.0 18.6 .187  45
2021 09 18 01  19 47 50.709   +21 24 28.75  .07527 1.0426 118.3 18.6 .188  47
2021 09 18 02  19 48 58.177   +21 10 54.15  .07518 1.0429 118.6 18.6 .190  49
2021 09 18 03  19 50 05.604   +20 57 15.96  .07510 1.0431 118.8 18.6 .192  51
2021 09 18 04  19 51 12.986   +20 43 34.24  .07501 1.0434 119.1 18.6 .195  53
2021 09 18 05  19 52 20.320   +20 29 49.06  .07493 1.0437 119.4 18.6 .198  56
2021 09 18 06  19 53 27.603   +20 16 00.48  .07485 1.0439 119.7 18.5 .201  58
2021 09 18 07  19 54 34.831   +20 02 08.59  .07478 1.0442 120.0 18.5 .204  60
2021 09 18 08  19 55 42.002   +19 48 13.44  .07471 1.0444 120.3 18.5 .208  63
2021 09 18 09  19 56 49.113   +19 34 15.12  .07464 1.0447 120.6 18.5 .213  65
2021 09 18 10  19 57 56.160   +19 20 13.69  .07457 1.0450 120.8 18.5 .218  67
2021 09 18 11  19 59 03.141   +19 06 09.23  .07451 1.0452 121.1 18.5 .224  70
2021 09 18 12  20 00 10.052   +18 52 01.82  .07445 1.0455 121.4 18.5 .230  72
2021 09 18 13  20 01 16.890   +18 37 51.54  .07439 1.0457 121.7 18.5 .236  74
2021 09 18 14  20 02 23.653   +18 23 38.46  .07433 1.0460 122.0 18.5 .243  77
2021 09 18 15  20 03 30.338   +18 09 22.66  .07428 1.0463 122.3 18.5 .251  79
2021 09 18 16  20 04 36.941   +17 55 04.23  .07423 1.0465 122.6 18.5 .259  81
2021 09 18 17  20 05 43.459   +17 40 43.24  .07419 1.0468 122.8 18.5 .268  83
2021 09 18 18  20 06 49.891   +17 26 19.77  .07414 1.0470 123.1 18.4 .277  85
2021 09 18 19  20 07 56.232   +17 11 53.92  .07410 1.0473 123.4 18.4 .287  87
2021 09 18 20  20 09 02.480   +16 57 25.77  .07406 1.0476 123.7 18.4 .297  88
2021 09 18 21  20 10 08.632   +16 42 55.40  .07403 1.0478 124.0 18.4 .308  90
2021 09 18 22  20 11 14.686   +16 28 22.89  .07400 1.0481 124.3 18.4 .319  92
2021 09 18 23  20 12 20.638   +16 13 48.34  .07397 1.0483 124.6 18.4 .331  93
2021 09 19 00  20 13 26.486   +15 59 11.83  .07394 1.0486 124.8 18.4 .343  95
2021 09 19 01  20 14 32.227   +15 44 33.45  .07392 1.0489 125.1 18.4 .356  96
2021 09 19 02  20 15 37.858   +15 29 53.28  .07390 1.0491 125.4 18.4 .369  98